Lid_Strength_Index
10 10 10 10 11 12 13 13 15 14 13 12 11 10 9 9 9 9 9 8 9 9 10 10 9 9 9 8 8 8 8 8 8 8 8 8 9 9 9 9 9 9 8 8
12 9 10 11 10 10 10 11 12 12 13 10 9 9 9 9 9 9 9 8 7 7 8 8 9 9 9 9 9 8 8 8 8 8 8 9 10 9 9 9 9 8 7 7
14 10 10 13 11 10 10 11 12 13 11 9 9 8 8 8 7 8 8 8 8 8 9 9 9 9 9 9 9 9 9 9 9 9 10 9 9 9 9 8 7 7 7 6
14 12 18 12 9 9 10 10 10 10 9 9 9 10 9 9 8 8 8 8 8 9 9 9 9 8 9 9 9 9 10 10 10 9 9 9 9 8 8 7 7 7 6 6
16 15 12 11 10 11 12 12 9 9 9 9 9 10 11 8 7 7 7 8 8 8 8 8 9 9 9 9 10 10 10 10 9 9 9 8 8 7 7 7 7 6 6 6
13 18 19 12 10 9 11 15 9 9 9 10 9 12 12 9 8 8 8 8 8 8 8 9 9 9 10 11 11 10 9 9 9 9 9 8 7 6 6 6 6 5 6 6
14 16 13 10 9 9 15 14 9 8 9 9 10 11 10 8 9 8 8 8 8 9 9 10 9 10 11 10 10 9 9 9 8 8 8 7 7 6 6 6 6 7 6 8
13 16 17 8 9 12 11 10 9 9 8 9 9 9 9 9 9 8 9 8 8 9 10 10 10 11 11 10 9 9 9 8 8 9 8 7 7 7 6 7 7 8 10 10
11 12 8 7 8 8 8 9 9 9 9 8 9 10 9 10 9 9 9 9 9 9 10 11 10 10 11 10 9 9 9 9 9 9 9 9 9 9 9 9 10 11 10 11
10 8 8 7 7 7 7 8 8 8 8 8 9 9 10 10 9 9 9 9 9 10 11 11 10 9 9 9 8 9 9 9 10 10 10 10 10 10 11 11 11 11 11 11
10 9 8 7 7 7 7 7 8 7 8 8 8 9 9 9 9 9 9 9 10 11 11 10 10 9 9 9 9 9 9 10 10 10 10 11 11 11 11 11 10 10 11 11
12 9 9 8 7 6 7 7 7 8 8 8 8 9 9 9 9 9 9 10 10 10 10 10 10 9 9 9 9 9 10 10 10 11 11 12 12 12 8 8 8 9 9 10
10 9 8 8 7 7 7 7 7 7 7 8 8 8 9 9 9 7 9 10 10 10 10 10 10 10 10 9 9 9 10 10 11 11 12 12 12 13 14 11 10 9 9 9
8 9 10 8 9 7 7 7 6 6 7 7 8 8 9 9 8 9 10 10 10 10 10 10 10 11 9 10 9 8 8 8 12 13 12 13 13 13 12 13 13 13 11 10
8 8 8 8 8 8 7 7 8 8 8 8 8 9 9 9 9 10 10 10 10 10 10 10 11 11 10 9 9 9 9 11 12 13 13 12 13 14 12 12 13 13 12 11
8 8 8 8 8 8 8 8 9 8 8 8 9 9 10 9 9 10 10 10 11 11 11 11 11 10 10 10 10 9 11 9 10 13 13 13 13 12 13 13 14 13 14 13
9 9 8 8 8 8 8 8 8 8 8 8 9 9 9 9 10 11 11 10 11 11 11 11 12 11 10 10 10 10 11 12 10 13 13 13 12 13 13 14 14 14 13 12
7 7 7 7 7 7 8 7 8 8 8 8 9 10 10 10 12 12 11 12 11 12 11 11 11 11 11 11 11 11 12 12 13 13 12 12 12 13 14 14 14 14 13 13
7 7 7 7 7 7 7 7 8 8 8 8 9 10 10 10 11 11 12 12 12 13 12 11 10 11 13 11 10 11 12 12 13 13 12 12 13 14 14 14 14 13 14 14
7 7 7 7 6 6 7 7 7 8 8 9 10 10 10 11 12 12 12 12 12 12 11 11 11 13 13 12 10 12 12 12 13 13 13 13 14 14 14 13 13 13 14 13
8 7 7 7 6 6 7 7 8 8 8 9 10 11 11 12 12 12 13 14 12 11 11 10 12 13 13 12 11 12 11 12 12 13 14 13 13 14 14 14 13 13 13 13
9 9 8 7 6 7 7 7 8 8 9 10 10 10 12 13 12 12 12 13 12 10 10 12 13 12 13 11 12 12 11 11 12 13 12 13 13 14 14 13 13 13 13 13
8 8 7 7 7 7 7 8 8 9 10 11 11 12 13 13 12 13 14 11 11 11 12 13 12 12 11 13 12 12 11 11 11 12 12 12 12 12 12 12 13 12 13 13
7 7 7 6 7 8 9 9 9 10 11 11 11 12 12 13 13 12 11 10 10 11 12 12 13 12 11 14 13 12 11 11 11 11 11 9 11 11 12 12 13 12 12 12
8 8 7 8 8 9 9 11 11 11 11 12 12 12 12 11 13 12 11 11 10 12 13 12 12 12 14 14 13 12 12 11 11 11 11 11 10 11 11 12 12 12 12 12
9 9 8 8 9 10 11 11 12 12 12 13 13 13 12 11 11 11 11 11 12 12 14 14 14 14 14 14 13 13 12 11 11 11 10 9 9 10 11 11 11 12 11 11
9 9 10 10 10 10 10 11 12 13 12 13 13 13 12 12 11 12 11 13 14 14 14 14 14 13 14 14 14 13 12 11 10 10 10 9 9 9 10 11 11 11 11 10